星链-11663 (STARLINK-11663)

导读 | 豆包AI

STARLINK-11663是美国于2025年4月28日发射的星链卫星,隶属于SpaceX公司的星链星座项目。该项目旨在构建全球卫星互联网星座,为全球偏远及网络不发达地区提供高速互联网接入服务。作为星链网络的组成单元,它将和其他卫星协同工作,推进项目全球覆盖的目标落地。

基本信息
目录编号:
63668
目录名称:
STARLINK-11663
国际标识:
2025-085E
轨道中心:
EARTH
卫星名称:
星链-11663
卫星全名:
星链-11663 (STARLINK-11663)
卫星状态:
在轨 (已飞行320 天)
发射日期:
2025-04-28 UTC
国别 :
美国 (US)
星等 :
--
轨道信息
数据来源 国际轨道数据
星历时间: 2026-03-14T19:49:15+0800
10小时前
查看轨道信息
半长轴: 6734.123km
偏心率: 0.0002404
轨道倾角: 42.999°
近地点辐角 258.743°
升交点赤经 249.784°
平近点角 101.316°
近地点: 354.367km
远地点: 357.605km
周期: 91.660分钟
每日圈数: 15.710182
详细信息
固有亮度:
5
最大亮度:
2.5
卫星平台:
Starlink V1.0
覆盖范围:
全球
运营商:
太空探索技术公司
运营商所在国:
美国
制造商(研发单位):
太空探索技术公司
制造商所在国:
美国
使用方式:
暂无
卫星简介
Starlink 计划是 SpaceX 推出的全球卫星互联网项目,通过发射低轨道卫星,为全球尤其是偏远地区提供高速、低延迟的互联网服务。自 2019 年起,Starlink 已部署数千颗卫星,旨在缩小全球数字鸿沟,推动互联网普及。该项目还为军事、航空等行业提供通信支持,带来广泛经济效益。
2D轨道图
3D轨道图
轨道高度分析图
轨道倾角分析图
轨道综合分析图
查看轨道综合分析图